Date String (YYYY-MM-DD hh:mm:ss) UTC,Instrument flags,absolute air pressure of the measurement (hPa),sample flow rate (lpm),inlet stack bypass flow (lpm),air temperature of the measurement (°C),ambient temperature measured by the external sensor (°C),aerosol sample conditioner tube jacket temperature (°C),OPC LED temperature (°C),internal box temperature (°C),relative humidity of the measurement (%),span deviation,mass concentration of particles derived from Lorenz-Mie calculation of OPC scattering (μg/m³),mass concentration of particles derived from Lorenz-Mie calculation of OPC scattering (μg/m³),mass concentration of particles derived from Lorenz-Mie calculation of OPC scattering (μg/m³)
DateTimeUTC,F1_M11,P_M11,Q1_M11,Q2_M11,T1_M11,T2_M11,T3_M11,T4_M11,T5_M11,U1_M11,ZSPAN_M11,X0_M11,X2_M11,X1_M11
2023-12-12 17:00:00,SystemResetWarning,0833.8,5.01,000.00,020.3,019.4,000.0,028.7,021.6,19.4,0000.0,0009.21,0006.25,0005.94
2023-12-12 17:01:00,SystemResetWarning,0833.8,5.00,000.00,020.3,019.4,000.0,028.7,021.6,19.4,0000.0,0008.94,0006.22,0005.92
2023-12-12 17:02:00,SystemResetWarning,0833.9,5.00,000.00,020.3,019.4,000.0,028.7,021.6,19.4,0000.0,0008.85,0006.19,0005.88
2023-12-12 17:03:00,SystemResetWarning,0833.9,5.00,000.00,020.3,019.4,000.0,028.6,021.6,19.4,0000.0,0008.65,0006.09,0005.81
2023-12-12 17:04:00,SystemResetWarning,0833.9,5.00,000.00,020.3,019.4,000.0,028.6,021.6,19.4,0000.0,0008.84,0006.05,0005.77
2023-12-12 17:05:00,SystemResetWarning,0833.8,5.00,000.00,020.3,019.4,000.0,028.6,021.6,19.4,0000.0,0008.92,0006.04,0005.76
2023-12-12 17:06:00,SystemResetWarning,0833.8,5.00,000.00,020.3,019.4,000.0,028.6,021.6,19.4,0000.0,0009.04,0006.05,0005.77
2023-12-12 17:07:00,SystemResetWarning,0833.9,5.00,000.00,020.3,019.4,000.0,028.6,021.6,19.4,0000.0,0009.02,0006.05,0005.77
2023-12-12 17:08:00,SystemResetWarning,0833.8,4.99,000.00,020.3,019.3,000.0,028.6,021.6,19.4,0000.0,0009.00,0006.02,0005.75
2023-12-12 17:09:00,SystemResetWarning,0833.9,5.00,000.00,020.3,019.3,000.0,028.6,021.6,19.4,0000.0,0009.16,0006.01,0005.75
2023-12-12 17:10:00,SystemResetWarning,0833.9,5.00,000.00,020.3,019.3,000.0,028.6,021.6,19.4,0000.0,0009.27,0006.05,0005.74
2023-12-12 17:11:00,SystemResetWarning,0833.8,5.00,000.00,020.3,019.3,000.0,028.6,021.6,19.4,0000.0,0009.04,0006.01,0005.73
2023-12-12 17:12:00,SystemResetWarning,0833.9,4.99,000.00,020.3,019.3,000.0,028.6,021.6,19.4,0000.0,0008.97,0006.01,0005.72
2023-12-12 17:13:00,SystemResetWarning,0833.9,5.00,000.00,020.3,019.3,000.0,028.6,021.6,19.5,0000.0,0008.96,0006.01,0005.72
2023-12-12 17:14:00,SystemResetWarning,0833.9,5.00,000.00,020.3,019.3,000.0,028.6,021.6,19.5,0000.0,0008.99,0006.03,0005.74
2023-12-12 17:15:00,SystemResetWarning,0833.8,5.00,000.00,020.3,019.3,000.0,028.6,021.6,19.5,0000.0,0008.72,0006.02,0005.74
2023-12-12 17:16:00,SystemResetWarning,0833.8,5.00,000.00,020.3,019.3,000.0,028.6,021.6,19.5,0000.0,0008.61,0006.01,0005.73
2023-12-12 17:17:00,SystemResetWarning,0833.8,5.00,000.00,020.3,019.3,000.0,028.6,021.6,19.5,0000.0,0008.58,0006.02,0005.72
2023-12-12 17:18:00,SystemResetWarning,0833.8,5.01,000.00,020.3,019.3,000.0,028.6,021.6,19.5,0000.0,0008.51,0005.97,0005.68
2023-12-12 17:19:00,SystemResetWarning,0833.8,5.00,000.00,020.3,019.3,000.0,028.6,021.5,19.5,0000.0,0008.50,0005.96,0005.67
2023-12-12 17:20:00,SystemResetWarning,0833.8,5.00,000.00,020.3,019.3,000.0,028.6,021.6,19.5,0000.0,0008.36,0005.95,0005.67
2023-12-12 17:21:00,SystemResetWarning,0833.8,5.00,000.00,020.3,019.3,000.0,028.6,021.6,19.5,0000.0,0008.25,0005.91,0005.67
2023-12-12 17:22:00,SystemResetWarning,0833.8,5.00,000.00,020.3,019.3,000.0,028.6,021.5,19.5,0000.0,0008.23,0005.91,0005.67
2023-12-12 17:23:00,SystemResetWarning,0833.8,4.99,000.00,020.3,019.3,000.0,028.6,021.6,19.6,0000.0,0008.22,0005.90,0005.65
2023-12-12 17:24:00,SystemResetWarning,0833.8,5.00,000.00,020.3,019.3,000.0,028.6,021.6,19.6,0000.0,0008.27,0005.91,0005.66
2023-12-12 17:25:00,SystemResetWarning,0833.8,5.00,000.00,020.3,019.3,000.0,028.6,021.6,19.6,0000.0,0008.29,0005.91,0005.67
2023-12-12 17:26:00,SystemResetWarning,0833.8,5.00,000.00,020.3,019.3,000.0,028.6,021.6,19.6,0000.0,0008.34,0005.92,0005.67
2023-12-12 17:27:00,SystemResetWarning,0833.8,4.99,000.00,020.3,019.3,000.0,028.6,021.5,19.6,0000.0,0008.38,0005.94,0005.68
2023-12-12 17:28:00,SystemResetWarning,0833.8,5.00,000.00,020.3,019.3,000.0,028.6,021.5,19.6,0000.0,0008.25,0005.91,0005.68
2023-12-12 17:29:00,SystemResetWarning,0833.8,4.99,000.00,020.3,019.3,000.0,028.6,021.5,19.6,0000.0,0008.18,0005.91,0005.70
2023-12-12 17:30:00,SystemResetWarning,0833.7,5.00,000.00,020.3,019.3,000.0,028.6,021.5,19.6,0000.0,0008.20,0005.93,0005.72
2023-12-12 17:31:00,SystemResetWarning,0833.7,5.00,000.00,020.3,019.3,000.0,028.6,021.6,19.6,0000.0,0008.15,0005.94,0005.72
2023-12-12 17:32:00,SystemResetWarning,0833.7,5.00,000.00,020.3,019.3,000.0,028.6,021.5,19.6,0000.0,0008.20,0005.95,0005.73
2023-12-12 17:33:00,SystemResetWarning,0833.7,5.00,000.00,020.3,019.3,000.0,028.6,021.5,19.6,0000.0,0008.26,0005.98,0005.74
2023-12-12 17:34:00,SystemResetWarning,0833.8,5.00,000.00,020.3,019.3,000.0,028.6,021.5,19.6,0000.0,0008.30,0006.00,0005.74
2023-12-12 17:35:00,SystemResetWarning,0833.7,5.00,000.00,020.3,019.3,000.0,028.6,021.5,19.6,0000.0,0008.27,0005.99,0005.74
2023-12-12 17:36:00,SystemResetWarning,0833.8,5.00,000.00,020.3,019.3,000.0,028.6,021.5,19.6,0000.0,0008.19,0005.97,0005.73
2023-12-12 17:37:00,SystemResetWarning,0833.7,5.00,000.00,020.3,019.3,000.0,028.6,021.5,19.6,0000.0,0008.16,0005.97,0005.73
2023-12-12 17:38:00,SystemResetWarning,0833.7,5.00,000.00,020.3,019.3,000.0,028.6,021.5,19.6,0000.0,0008.11,0005.95,0005.72
2023-12-12 17:39:00,SystemResetWarning,0833.7,5.00,000.00,020.3,019.3,000.0,028.6,021.6,19.6,0000.0,0008.13,0005.94,0005.70
2023-12-12 17:40:00,SystemResetWarning,0833.7,5.00,000.00,020.3,019.3,000.0,028.6,021.6,19.6,0000.0,0008.15,0005.93,0005.68
2023-12-12 17:41:00,SystemResetWarning,0833.7,5.00,000.00,020.3,019.3,000.0,028.6,021.6,19.6,0000.0,0008.19,0005.93,0005.66
2023-12-12 17:42:00,SystemResetWarning,0833.8,4.99,000.00,020.3,019.3,000.0,028.6,021.5,19.6,0000.0,0008.22,0005.94,0005.66
2023-12-12 17:43:00,SystemResetWarning,0833.7,5.00,000.00,020.2,019.3,000.0,028.6,021.5,19.6,0000.0,0008.19,0005.92,0005.65
2023-12-12 17:44:00,SystemResetWarning,0833.7,5.00,000.00,020.2,019.3,000.0,028.6,021.5,19.6,0000.0,0008.65,0005.90,0005.62
2023-12-12 17:45:00,SystemResetWarning,0833.7,5.00,000.00,020.2,019.3,000.0,028.5,021.5,19.6,0000.0,0008.70,0005.86,0005.60
2023-12-12 17:46:00,SystemResetWarning,0833.7,5.00,000.00,020.2,019.3,000.0,028.5,021.5,19.6,0000.0,0008.70,0005.83,0005.58
2023-12-12 17:47:00,SystemResetWarning,0833.7,5.01,000.00,020.2,019.2,000.0,028.5,021.5,19.6,0000.0,0008.72,0005.81,0005.54
2023-12-12 17:48:00,SystemResetWarning,0833.7,5.01,000.00,020.2,019.3,000.0,028.5,021.5,19.6,0000.0,0008.65,0005.76,0005.51
2023-12-12 17:49:00,SystemResetWarning,0833.7,5.00,000.00,020.2,019.3,000.0,028.5,021.4,19.6,0000.0,0008.60,0005.73,0005.48
2023-12-12 17:50:00,SystemResetWarning,0833.7,4.98,000.00,020.2,019.3,000.0,028.5,021.4,19.6,0000.0,0008.55,0005.71,0005.47
2023-12-12 17:51:00,SystemResetWarning,0833.7,5.00,000.00,020.2,019.3,000.0,028.5,021.4,19.6,0000.0,0008.53,0005.69,0005.45
2023-12-12 17:52:00,SystemResetWarning,0833.7,5.01,000.00,020.2,019.2,000.0,028.5,021.4,19.6,0000.0,0008.52,0005.67,0005.44
2023-12-12 17:53:00,SystemResetWarning,0833.7,5.01,000.00,020.2,019.2,000.0,028.5,021.5,19.7,0000.0,0008.52,0005.66,0005.42
2023-12-12 17:54:00,SystemResetWarning,0833.7,5.00,000.00,020.2,019.2,000.0,028.5,021.5,19.6,0000.0,0008.61,0005.68,0005.41
2023-12-12 17:55:00,SystemResetWarning,0833.7,5.00,000.00,020.2,019.2,000.0,028.5,021.5,19.7,0000.0,0008.24,0005.68,0005.41
2023-12-12 17:56:00,SystemResetWarning,0833.6,4.99,000.00,020.2,019.2,000.0,028.5,021.5,19.7,0000.0,0008.08,0005.68,0005.41
2023-12-12 17:57:00,SystemResetWarning,0833.5,4.99,000.00,020.2,019.2,000.0,028.5,021.4,19.7,0000.0,0008.05,0005.68,0005.42
2023-12-12 17:58:00,SystemResetWarning,0833.5,4.99,000.00,020.2,019.2,000.0,028.5,021.4,19.8,0000.0,0008.00,0005.67,0005.42
2023-12-12 17:59:00,SystemResetWarning,0833.5,5.00,000.00,020.2,019.2,000.0,028.5,021.4,19.8,0000.0,0008.07,0005.70,0005.44
